Skip Page Navigation
NASA JPL Caltech
NASA Logo - Jet Propulsion Laboratory + View the NASA Portal
+ Near-Earth Object (NEO) Program
Search JPL
JPL Home Earth Solar System Stars & Galaxies Technology
JPL Solar System Dynamics
BODIES ORBITS EPHEMERIDES TOOLS PHYSICAL DATA DISCOVERY FAQ SITE MAP
JPL Small-Body Database Browser
Search: [ help ]  
57567 Crikey (2001 TS56)
Classification: Main-belt Asteroid          SPK-ID: 2057567
Ephemeris | Orbit Diagram | Orbital Elements | Physical Parameters | Discovery Circumstances ]

[ show orbit diagram ]
Orbital Elements at Epoch 2456400.5 (2013-Apr-18.0) TDB
Reference: MPO247790 (heliocentric ecliptic J2000)
 Element Value Uncertainty (1-sigma)   Units 
e 0.1587224 n/a  
a 3.1821992 n/a AU
q 2.6771129 n/a AU
i 2.56924 n/a deg
node 223.15031 n/a deg
peri 250.06409 n/a deg
M 308.46049 n/a deg
tp 2456697.3433001
(2014-Feb-08.84330010)
n/a JED
period 2073.4304232
5.68
n/a
n/a
d
yr
n 0.17362531 n/a deg/d
Q 3.6872855 n/a AU
  Orbit Determination Parameters
   # obs. used (total)      342  
   first obs. used      1990-??-??  
   last obs. used      2012-12-05  
   # oppositions      11  
   planetary ephem.      DE403  
   condition code      0  
   fit RMS      0.52  
   data source      MPC:mpn  
   producer      MPCLINUX  

Additional Information
 T_jup = 3.178 

Ephemeris | Orbit Diagram | Orbital Elements | Physical Parameters | Discovery Circumstances ]

Physical Parameter Table
Parameter Symbol Value Units Sigma Reference Notes
absolute magnitude H 14.8 mag n/a MPO247790  

57567 Crikey           Discovered 2001 Oct. 14 at Needville.
Australian Steve Irwin (1962-2006) was an "ordinary bloke" with an extraordinary passion and enthusiasm for wildlife conservation. With his wife Terri (b. 1964) and signature phrase "crikey!", he pioneered an athletic style of nature documentary that captivated television audiences worldwide.
NOTE: some special characters may not display properly (any characters within {} are an attempt to place the proper accent above a character)
Reference: 20070730/MPCPages.arcLast Updated: 2007-08-07

Alternate Designations
 2001 TS56 = 1995 UR41 
Ephemeris | Orbit Diagram | Orbital Elements | Physical Parameters | Discovery Circumstances ]
ABOUT SSD CREDITS/AWARDS PRIVACY/COPYRIGHT GLOSSARY LINKS
FirstGov 2013-May-23 22:09 UT
(server date/time)  
NASA Home Page
Site Manager:   Donald K. Yeomans
Webmaster  Alan B. Chamberlin